| time (UTC) | temp C | wind direction | speed KPH | gust KPH | rain 1hr cm | rain 24hr cm | rain mn cm | humidity % | barometer mb |
| 20260905145316 | 20 | 294 | 24.1 | 0.0 | 0.00 | 0.00 | 0.00 | 64 | 1011.3 |
| 20260905142317 | 21 | 297 | 29.0 | 0.0 | 0.00 | 0.00 | 0.00 | 64 | 1011.3 |
| 20260905135316 | 21 | 292 | 29.0 | 0.0 | 0.00 | 0.00 | 0.00 | 64 | 1011.3 |
| 20260905132317 | 21 | 298 | 27.4 | 0.0 | 0.00 | 0.00 | 0.00 | 64 | 1011.3 |
| 20260905122317 | 21 | 284 | 24.1 | 0.0 | 0.00 | 0.00 | 0.00 | 64 | 1011.3 |
| 20260905115317 | 21 | 282 | 24.1 | 0.0 | 0.00 | 0.00 | 0.00 | 64 | 1011.3 |
| 20260905112317 | 21 | 290 | 27.4 | 0.0 | 0.00 | 0.00 | 0.00 | 64 | 1011.3 |
| 20260905105316 | 20 | 290 | 27.4 | 0.0 | 0.00 | 0.00 | 0.00 | 64 | 1011.3 |
| 20260905102318 | 20 | 291 | 30.6 | 0.0 | 0.00 | 0.00 | 0.00 | 64 | 1011.3 |
| 20260905095317 | 19 | 291 | 29.0 | 0.0 | 0.00 | 0.00 | 0.00 | 64 | 1011.3 |
| 20260905092317 | 18 | 289 | 27.4 | 0.0 | 0.00 | 0.00 | 0.00 | 64 | 1011.3 |
| 20260905085317 | 18 | 288 | 25.7 | 0.0 | 0.00 | 0.00 | 0.00 | 64 | 1011.3 |
| 20260905082317 | 18 | 289 | 24.1 | 0.0 | 0.00 | 0.00 | 0.00 | 64 | 1011.3 |
| 20260905075317 | 17 | 283 | 20.9 | 0.0 | 0.00 | 0.00 | 0.00 | 64 | 1011.3 |
| 20260905072317 | 17 | 278 | 22.5 | 0.0 | 0.00 | 0.00 | 0.00 | 64 | 1011.3 |
| 20260905065317 | 17 | 275 | 20.9 | 0.0 | 0.00 | 0.00 | 0.00 | 64 | 1011.3 |
| 20260905062317 | 16 | 273 | 17.7 | 0.0 | 0.00 | 0.00 | 0.00 | 64 | 1011.3 |
| 20260905055317 | 16 | 273 | 17.7 | 0.0 | 0.00 | 0.00 | 0.00 | 64 | 1011.3 |
| 20260905052316 | 16 | 272 | 19.3 | 0.0 | 0.00 | 0.00 | 0.00 | 64 | 1011.3 |
| 20260905045319 | 16 | 271 | 19.3 | 0.0 | 0.00 | 0.00 | 0.00 | 64 | 1011.3 |
| 20260905042316 | 16 | 266 | 16.1 | 0.0 | 0.00 | 0.00 | 0.00 | 64 | 1011.3 |
| 20260905035317 | 16 | 262 | 14.5 | 0.0 | 0.00 | 0.00 | 0.00 | 64 | 1011.3 |
| 20260905032316 | 16 | 258 | 16.1 | 0.0 | 0.00 | 0.00 | 0.00 | 64 | 1011.3 |
| 20260905025317 | 16 | 261 | 14.5 | 0.0 | 0.00 | 0.00 | 0.00 | 64 | 1011.3 |
| 20260905022319 | 16 | 269 | 14.5 | 0.0 | 0.00 | 0.00 | 0.00 | 64 | 1011.3 |
| 20260905015317 | 16 | 267 | 16.1 | 0.0 | 0.00 | 0.00 | 0.00 | 64 | 1011.3 |
| 20260905012316 | 16 | 266 | 16.1 | 0.0 | 0.00 | 0.00 | 0.00 | 64 | 1011.3 |
| 20260905005317 | 16 | 272 | 17.7 | 0.0 | 0.00 | 0.00 | 0.00 | 64 | 1011.3 |
| 20260905002316 | 17 | 282 | 20.9 | 0.0 | 0.00 | 0.00 | 0.00 | 64 | 1011.3 |
| 20260904235318 | 17 | 285 | 19.3 | 0.0 | 0.00 | 0.00 | 0.00 | 64 | 1011.3 |
| 20260904232317 | 17 | 278 | 14.5 | 0.0 | 0.00 | 0.00 | 0.00 | 64 | 1011.3 |
| 20260904225317 | 18 | 281 | 16.1 | 0.0 | 0.00 | 0.00 | 0.00 | 64 | 1011.3 |
| 20260904222317 | 19 | 298 | 17.7 | 0.0 | 0.00 | 0.00 | 0.00 | 67 | 1010.6 |
| 20260904215316 | 20 | 299 | 17.7 | 0.0 | 0.00 | 0.00 | 0.00 | 64 | 1016.3 |
| 20260904212316 | 20 | 297 | 20.9 | 0.0 | 0.00 | 0.00 | 0.00 | 64 | 1016.3 |
| 20260904205317 | 21 | 303 | 20.9 | 0.0 | 0.00 | 0.00 | 0.00 | 64 | 1016.3 |
| 20260904202316 | 22 | 314 | 20.9 | 0.0 | 0.00 | 0.00 | 0.00 | 64 | 1016.3 |
| 20260904195316 | 22 | 305 | 16.1 | 0.0 | 0.00 | 0.00 | 0.00 | 64 | 1016.3 |
| 20260904192318 | 22 | 247 | 16.1 | 0.0 | 0.00 | 0.00 | 0.00 | 64 | 1016.3 |
| 20260904185318 | 23 | 217 | 19.3 | 0.0 | 0.00 | 0.00 | 0.00 | 64 | 1016.3 |
| 20260904182317 | 23 | 219 | 17.7 | 0.0 | 0.00 | 0.00 | 0.00 | 64 | 1016.3 |
| 20260904175317 | 23 | 224 | 17.7 | 0.0 | 0.00 | 0.00 | 0.00 | 64 | 1016.3 |
| 20260904172317 | 25 | 233 | 17.7 | 0.0 | 0.00 | 0.00 | 0.00 | 64 | 1016.3 |
| 20260904165317 | 25 | 238 | 17.7 | 0.0 | 0.00 | 0.00 | 0.00 | 64 | 1016.3 |
| 20260904162316 | 25 | 246 | 20.9 | 0.0 | 0.00 | 0.00 | 0.00 | 64 | 1016.3 |
| 20260904155320 | 25 | 244 | 22.5 | 0.0 | 0.00 | 0.00 | 0.00 | 64 | 1016.3 |
| 20260904152317 | 25 | 243 | 22.5 | 0.0 | 0.00 | 0.00 | 0.00 | 64 | 1016.3 |